Showing default

NOAA 4, 7529

Orbit data source: Space-Track

NOAA 4, 7529 is a payload satellite owned by NOAA (US) in SSO that was launched on Fri, 15 Nov 1974 UTC via a DELTA 2310 launch vehicle from the Air Force Western Test Range (AFWTR). Payload-class satellites include a variety of spacecraft equipped with specific instruments for various scientific and technological missions. These include communications satellites like Starlink; space stations such as the ISS; scientific satellites like the Hubble; Earth observation satellites from companies like Planet Labs, Umbra, and HawkEye 360; GPS; miniature CubeSats for education and research; and military/defense satellites.

Loading next visibility...
Identifier
7529, 1974-089A
Orbit
SSO
Country
Flag of USUS
Related business
Manufacturer
RCA/East Windsor
Mission
Non-operational Civil Weather
Bus & Motor
TIROS M, Unknown motor
Mass
345 kg wet, 345 kg dry
Launch date (UTC)
1974-11-15 (51 years ago)
Launch vehicle
DELTA 2310
Launch site
Air Force Western Test Range (AFWTR)
Object type
Payload
Rocket body
Debris
Shape & HBR
Hex Poly + 3 Pan, 0.6 m
Radar Cross Section
1.292 m², Large (>1 m²)

Expand to show TLE details & history
Last TLE update: 9 hours ago

TLE from 9 hours ago
0 NOAA 4
1 07529U 74089A   25242.92306862 -.00000036  00000-0  66673-4 0  9994
2 07529 102.0073 247.6274 0009294  32.2589  27.3319 12.53196045323169
Epoch: 2025-08-30T22:09Z
TLE epoch observation values (Epoch: 2025-08-30T22:09:13.128Z)
Latitude
57.6571°
Longitude
-83.55361°
Altitude
1,454.183 km
Speed
7.143 km/s
True Right ascension
15h 12m 24s
True Declination
57° 30' 55"
Sunlit
Object was in daylight at epoch
Visualization orbit readout
Latitude
Unknown
Longitude
Unknown
Altitude
Unknown
Speed
Unknown
Apparent Right ascension
Unknown
Apparent Declination
Unknown
Sunlit
N/A
Visualization observer readout
Local Sidereal Time
22:53:24
Azimuth
Unknown
Elevation
Unknown
Doppler factor
Unknown
Orbital elements
Apogee altitude
1,455.987 km
Perigee altitude
1,441.439 km
Semi-major axis
7,826.85 km
Eccentricity
0.00093
Inclination
102.0073°
RAAN
247.6274°
Arg. of periapsis
32.2589°
True anomaly
27.38085°
Mean anomaly
27.3319°
Eccentric anomaly
27.35637°
Mean motion
3.13446 °/min
Orbital period
114.85 mins
BSTAR
0.000066673
Loading maneuver chart data...
Computing Atmospheric mass density...
Loading historical data...
Loading historical data...
Loading historical data...
Loading historical data...
Loading historical data...
Loading historical data...
Loading historical data...

Documentation

Showing up to 5 results
|